Погода в Цзиси

Китай     45°17′43″N   130°58′17″E
темп.,
°C
ветер,
м/с
пор.,
м/с
влажн.,
%
обл.,
%
осадки,
мм/ч
давл.,
гПа
погр.,
м
29 июля, чт
чт2923:00+25юз117057 0.0 100212
02:00+24з2278100 0.0 100214
05:00+22з2192100 1.0 100326
08:00+28сз2264100 1.4 1002517
11:00+35в113920 0.0 10001702
14:00+34с214289 0.2 9981528
17:00+32с3448100 0.1 998295
20:00+24з2493100 2.8 1000107
30 июля, пт
пт3023:00+23ююз1193100 2.8 100016
02:00+23зюз1192100 2.9 99911
05:00+22сз1195100 1.3 100030
08:00+23зсз018870 1.7 1001158
11:00+28св336272 0.0 1000964
14:00+27ссв2380100 3.8 1000253
17:00+24с2391100 2.7 1000101
20:00+23в1292100 2.7 100119
31 июля, сб
сб3123:00+22в1294100 0.1 100126
02:00+21в119797 0.4 100032
05:00+22в129847 1.0 1000104
08:00+26юв347422 1.0 1001755
11:00+33юв56438 0.0 9991888
14:00+35ююв663793 0.0 9972555
17:00+31ююв694624 0.0 9981174
20:00+26ююв49661 0.0 1000382
1 августа, вс
вс123:00+25ююв4106894 0.0 1001535
02:00+24юв497489 0.0 1001596
05:00+23юв5977100 0.0 1001650
08:00+24юв697654 0.0 1002771
11:00+27ююв786790 0.1 1002943
14:00+31ююв6750100 0.1 10011832
17:00+30ю685284 0.0 10011309
20:00+25ююв496923 0.0 1004387
2 августа, пн
пн223:00+21ююв228663 0.0 100524
02:00+20вюв119225 0.0 100512
05:00+21вюв238966 0.0 100699
08:00+27ююв356289 0.0 10061222
11:00+28юз3359100 0.2 10051379
14:00+27ююз2370100 0.9 1005405
17:00+28з116357 0.3 1004436
20:00+24ссв117657 0.5 100511